Location: doobydoo
(53.3403°N, 2.6908°W)
Time: 13:00:20
(UTC+00:00)

ISS - Pass Details

Date: 20 December 2021
Orbit: 413 x 422 km, 51.6° (Epoch: 19 January)

Event Time Altitude Azimuth Distance (km) Brightness Sun altitude
Rises 07:23:12 0° 225° (SW) 2,366 -0.1 -8.2°
Reaches altitude 10° 07:25:27 10° 214° (SSW) 1,506 -1.0 -7.9°
Maximum altitude 07:28:24 28° 153° (SSE) 823 -1.5 -7.6°
Drops below altitude 10° 07:31:23 10° 92° (E) 1,516 0.2 -7.2°
Sets 07:33:39 0° 81° (E) 2,384 1.0 -6.9°
